Location: Wingville
(42.9917°N, 90.4915°W)
Time: 00:13:26
(UTC+00:00)

CAS-6 - Visible Passes

Search period start: 29 June 2022 00:00
Search period end: 09 July 2022 00:00
Orbit: 613 x 635 km, 97.9° (Epoch: 28 June)

Date Brightness Start Highest point End Pass type
(mag) Time Alt. Az. Time Alt. Az. Time Alt. Az.
29 Jun ? 03:12:03 13° ESE 03:14:27 19° ENE 03:17:32 10° NNE visible
29 Jun ? 04:49:18 36° SW 04:50:20 42° W 04:54:29 10° NNW visible
30 Jun ? 03:30:42 20° ESE 03:32:43 28° ENE 03:36:27 10° N visible
30 Jun ? 05:07:56 25° WSW 05:08:51 27° W 05:12:35 10° NW visible
01 Jul ? 03:49:21 29° ESE 03:51:02 43° ENE 03:55:10 10° N visible
01 Jul ? 05:26:35 17° WSW 05:27:25 18° W 05:30:22 10° NW visible
02 Jul ? 04:08:00 41° SE 04:09:24 69° ENE 04:13:44 10° N visible
02 Jul ? 05:45:14 11° W 05:46:02 11° W 05:47:20 10° WNW visible
03 Jul ? 02:50:41 10° E 02:52:14 12° ENE 02:53:47 10° NE visible
03 Jul ? 04:26:39 47° S 04:27:50 75° W 04:32:10 10° NNW visible
04 Jul ? 03:08:03 12° E 03:10:27 18° ENE 03:13:19 10° NNE visible
04 Jul ? 04:45:18 39° SW 04:46:16 47° W 04:50:29 10° NNW visible
05 Jul ? 03:26:42 18° ESE 03:28:42 26° ENE 03:32:18 10° NNE visible
05 Jul ? 05:03:57 28° WSW 05:04:46 30° W 05:08:36 10° NW visible
06 Jul ? 03:45:21 28° ESE 03:47:00 39° ENE 03:51:03 10° N visible
06 Jul ? 05:22:36 19° WSW 05:23:20 19° W 05:26:28 10° NW visible
07 Jul ? 04:04:00 40° SE 04:05:21 62° ENE 04:09:39 10° N visible
07 Jul ? 05:41:15 12° W 05:41:56 12° W 05:43:44 10° WNW visible
08 Jul ? 02:47:19 10° ENE 02:48:14 11° ENE 02:49:08 10° NE visible
08 Jul ? 04:22:40 50° S 04:23:45 83° WSW 04:28:06 10° NNW visible
